[Date Prev][Date Next][Thread Prev][Thread Next] - [Date Index][Thread Index][Author Index]
2 Line ISS Keps 12-27
- Subject: [sarex] 2 Line ISS Keps 12-27
- From: "Dave Larsen PhD" <doc@xxxxxxxxxxx>
- Date: Mon, 26 Dec 2005 19:29:57 -0800
ISS
1 25544U 98067A 05360.82419328 .00014604 00000-0 10696-3 0 295
2 25544 051.6447 353.5692 0010941 084.4557 339.8030 15.73394995406001
----
Via the sarex mailing list at AMSAT.ORG courtesy of AMSAT-NA.
To unsubscribe, send "unsubscribe sarex" to Majordomo@amsat.org
AMSAT Home